Spokane Fairchild, WA
on Saturday, January 12, 2013

Saturday
Previous Day Next Day
Daily Summary
 ActualAverage (KGEG)Record (KGEG)
Temperature
Mean Temperature °F 29°F  
Max Temperature 19°F 34°F 53°F (1983)
Min Temperature 6°F 24°F -7°F (1949)
Degree Days
Heating Degree Days 52 36  
Month to date heating degree days 442  
Since 1 July heating degree days 3276  
Cooling Degree Days 0 0  
Month to date cooling degree days 0  
Year to date cooling degree days 0  
Moisture
Dew Point 16°F   
Average Humidity 100    
Maximum Humidity 100    
Minimum Humidity 93    
Precipitation
Precipitation 0.00 in 0.06 in 0.63 in (1958)
Month to date precipitation 0.77  
Year to date precipitation 0.77  
Snow
Snow 0.00 in 0.50 in 4.00 in (1921)
Month to date snowfall 5.6  
Since 1 July snowfall 27.7  
Snow Depth 3.00 in   
Wind
Wind Speed 5 mph   
Max Wind Speed 10 mph   
Max Gust Speed mph   
Visibility 9 miles   
Events     

Key: T is trace of precipitation, MM is missing value
Source: NWS Daily Summary
Time(PST)TemperatureDew PointHumidity Pressure Visibility Wind DirectionWind SpeedGust SpeedPrecipitationEvents Conditions
12:59 AM 17.6°F 17.6°F 100% 30.27 in 7.0 miles WSW 3.5 mph - N/A   Overcast
1:59 AM 17.6°F 17.6°F 100% 30.27 in 7.0 miles SW 6.9 mph - N/A   Overcast
2:56 AM 19.4°F 19.4°F 100% 30.29 in 7.0 miles SW 6.9 mph - N/A   Overcast
3:56 AM 19.4°F 17.6°F 93% 30.29 in 10.0 miles SW 5.8 mph - N/A   Mostly Cloudy
4:55 AM 19.4°F 17.6°F 93% 30.39 in 10.0 miles SSW 4.6 mph - N/A   Mostly Cloudy
5:56 AM 19.4°F 19.4°F 100% 30.39 in 10.0 miles West 3.5 mph - N/A   Mostly Cloudy
6:55 AM 19.4°F 19.4°F 100% 30.41 in 5.0 miles SSW 3.5 mph - N/A   Overcast
7:17 AM 19.4°F 19.4°F 100% 30.17 in 6.0 miles SSW 5.8 mph - N/A   Overcast
7:58 AM 18.7°F 18.7°F 100% 30.31 in 10.0 miles SSW 3.5 mph - N/A   Overcast
8:27 AM 19.4°F 19.4°F 100% 30.18 in 4.0 miles South 3.5 mph - N/A   Overcast
8:37 AM 19.4°F 19.4°F 100% 30.18 in 4.0 miles SSW 3.5 mph - N/A   Overcast
8:58 AM 19.6°F 19.6°F 100% 30.32 in 3.0 miles West 2.3 mph - N/A   Overcast
9:30 AM 19.4°F 19.4°F 100% 30.19 in 3.0 miles Calm Calm - N/A   Overcast
9:58 AM 19.4°F 19.4°F 100% 30.33 in 9.0 miles WSW 4.6 mph - N/A   Overcast
10:58 AM 18.0°F 18.0°F 100% 30.34 in 10.0 miles Calm Calm - N/A   Overcast
11:58 AM 18.0°F 18.0°F 100% 30.33 in 10.0 miles Calm Calm - N/A   Overcast
12:03 PM 17.6°F 17.6°F 100% 30.20 in 10.0 miles Calm Calm - N/A   Overcast
12:58 PM 16.7°F 16.7°F 100% 30.33 in 10.0 miles Variable 4.6 mph - N/A   Overcast
1:03 PM 15.8°F 15.8°F 100% 30.20 in 10.0 miles North 3.5 mph - N/A   Overcast
1:48 PM 17.6°F 17.6°F 100% 30.20 in 10.0 miles NNE 9.2 mph - N/A   Overcast
1:58 PM 16.9°F 16.9°F 100% 30.21 in 10.0 miles NNW 6.9 mph - N/A   Overcast
2:03 PM 17.6°F 17.6°F 100% 30.21 in 10.0 miles NNW 6.9 mph - N/A   Overcast
2:18 PM 17.6°F 17.6°F 100% 30.22 in 10.0 miles NNE 9.2 mph - N/A   Overcast
2:38 PM 17.6°F 17.6°F 100% 30.22 in 10.0 miles NNE 6.9 mph - N/A   Scattered Clouds
2:43 PM 15.8°F 15.8°F 100% 30.22 in 10.0 miles NNE 6.9 mph - N/A   Mostly Cloudy
2:53 PM 15.8°F 15.8°F 100% 30.21 in 10.0 miles NNE 9.2 mph - N/A   Mostly Cloudy
2:58 PM 15.8°F 15.8°F 100% 30.21 in 10.0 miles NNE 10.4 mph - N/A   Mostly Cloudy
3:18 PM 15.8°F 15.8°F 100% 30.22 in 10.0 miles NNE 8.1 mph - N/A   Scattered Clouds
3:58 PM 15.4°F 15.4°F 100% 30.22 in 10.0 miles North 2.3 mph - N/A   Clear
4:58 PM 13.5°F 13.5°F 100% 30.37 in 10.0 miles WSW 2.3 mph - N/A   Clear
5:58 PM 12.2°F 12.2°F 100% 30.38 in 10.0 miles Calm Calm - N/A   Clear
6:55 PM 9.0°F 9.0°F 100% 30.38 in 4.0 miles SSE 3.5 mph - N/A   Clear
7:38 PM 8.6°F 8.6°F 100% 30.38 in 10.0 miles West 4.6 mph - N/A   Clear
7:59 PM 6.3°F 6.3°F 100% 30.38 in 10.0 miles South 3.5 mph - N/A   Mostly Cloudy
8:55 PM 7.0°F 6.8°F 99% 30.37 in 10.0 miles South 3.5 mph - N/A   Partly Cloudy
9:55 PM 7.0°F 6.8°F 99% 30.37 in 10.0 miles SW 4.6 mph - N/A   Partly Cloudy
10:59 PM 6.8°F 6.8°F 100% 30.37 in 10.0 miles SW 4.6 mph - N/A   Mostly Cloudy
11:56 PM 6.8°F 6.8°F 100% 30.38 in 10.0 miles SW 4.6 mph - N/A   Mostly Cloudy
Moon Phase
Jan. 12 Jan. 18 Jan. 26 Feb. 03 Feb. 10
Sunrise:07:35 AM (PST) Moon Rise:07:50 AM (PST)1/12
Sunset:04:22 PM (PST) Moon Set:06:06 PM (PST)1/12

Copyright © 2014 The Weather Underground, Inc.